Lapse_Rate
7.1 6.5 6.5 6.5 6.5 6.5 6.5 6.5 6.5 6.5 6.5 6.5 6.5 6.5 6.5 7.1 7.2 7.3 7.5 7.7 7.9 8.0 8.5 8.4 7.7 7.6 7.4 7.3 6.9 6.6 6.3 5.9 6.4 6.6 7.3 7.0 8.2 7.7 7.5 7.2 6.3 6.2 6.1 5.7
6.5 6.5 6.5 6.5 6.5 6.5 6.5 6.5 6.5 6.5 6.5 6.5 6.5 6.5 6.5 6.8 7.0 7.3 7.4 7.6 7.9 8.1 8.3 8.4 7.4 7.4 7.0 6.9 6.6 6.3 6.4 5.6 5.7 6.9 7.0 7.3 7.5 7.5 7.8 7.1 6.7 6.5 6.3 6.0
6.5 6.5 6.5 6.5 6.5 6.5 6.5 6.5 6.5 6.5 6.5 6.5 6.5 6.5 6.5 6.6 7.2 7.4 7.8 7.9 8.1 8.1 8.1 8.2 7.1 6.9 7.0 6.8 6.4 6.3 6.0 5.7 5.8 6.4 6.4 6.4 6.3 6.6 7.4 7.3 7.6 7.3 6.5 6.6
6.5 6.6 6.5 6.5 6.5 6.5 6.5 6.5 6.5 6.5 6.5 6.5 6.5 6.5 6.5 6.5 6.5 6.7 7.4 7.7 8.0 8.1 8.3 8.2 6.5 6.8 7.1 6.5 6.6 6.2 5.9 5.8 5.5 5.5 6.5 6.8 7.0 8.0 8.1 7.7 7.6 7.6 6.6 6.7
6.5 6.5 6.5 6.5 6.5 6.5 6.5 6.5 6.5 6.5 6.5 6.5 6.5 6.5 6.5 6.5 6.5 6.5 7.1 7.5 7.9 8.2 8.2 8.2 7.4 6.4 6.7 6.9 6.5 6.1 5.5 5.5 6.1 5.3 6.5 7.1 7.2 7.9 7.8 7.4 6.9 7.1 6.5 6.4
6.5 7.0 6.5 6.5 6.5 6.5 6.5 6.5 6.5 6.5 6.5 6.5 6.5 6.5 6.5 6.5 6.5 6.5 7.0 7.5 7.8 8.1 8.3 8.4 7.8 6.6 6.2 6.7 6.4 6.2 5.0 5.0 5.5 5.4 5.8 6.2 6.6 6.9 7.0 6.9 7.4 7.6 7.7 7.6
6.5 6.5 6.5 6.7 6.5 6.5 6.5 6.5 6.5 6.5 6.5 6.5 6.5 6.5 6.5 6.5 6.5 6.4 6.7 7.4 7.8 8.1 8.3 8.3 8.1 6.7 6.0 6.2 6.1 6.0 5.2 5.0 5.2 5.6 5.8 6.0 6.4 6.1 6.1 6.1 7.3 7.1 7.4 7.6
6.5 6.5 6.5 6.5 6.5 6.5 6.5 6.5 6.5 6.5 6.5 6.5 6.5 6.5 6.5 6.5 6.9 7.2 7.4 7.6 7.9 8.0 8.3 8.2 8.2 6.5 5.9 5.9 5.4 5.6 5.2 5.3 5.2 5.2 5.7 5.8 6.1 6.6 6.9 6.4 7.3 7.5 7.7 7.9
6.5 6.5 6.5 6.5 6.5 6.5 6.5 6.5 6.5 6.5 6.5 6.5 6.5 6.5 6.5 6.5 6.5 6.8 7.1 7.4 7.6 7.8 8.0 8.1 8.2 7.0 6.2 5.4 4.7 5.4 5.6 5.3 5.2 5.3 5.2 5.6 5.8 6.0 6.6 6.1 5.7 6.8 6.6 7.5
6.5 6.5 6.5 6.5 6.6 6.6 6.5 6.5 6.5 6.5 6.5 6.5 6.5 6.5 6.5 6.5 6.5 6.5 6.6 7.1 7.4 7.8 8.0 8.1 7.3 6.5 5.9 5.5 5.0 4.6 5.5 5.0 5.2 5.6 5.3 5.5 5.9 5.9 6.1 6.0 5.6 5.8 6.1 6.1
6.5 6.5 6.5 6.5 6.5 6.5 6.5 6.5 6.5 6.5 6.5 6.5 6.5 6.5 6.5 6.5 6.5 6.5 6.6 7.2 7.5 7.7 8.0 8.1 8.0 6.0 5.2 5.1 5.2 4.8 5.4 5.2 5.5 5.5 4.8 5.0 5.7 6.0 6.0 6.2 5.9 5.8 5.9 5.7
6.5 6.5 6.5 6.5 6.5 6.5 6.5 6.5 6.5 6.5 6.5 6.5 6.5 6.5 6.5 6.5 6.5 6.8 6.9 7.2 7.6 7.9 8.0 8.2 8.3 7.8 6.2 5.4 5.1 4.2 4.6 4.9 4.7 4.4 4.1 4.4 5.4 5.6 6.2 5.9 6.0 6.2 5.9 5.8
6.5 6.5 6.5 6.5 6.5 6.5 6.5 6.5 6.5 6.5 6.5 6.5 6.5 6.5 6.5 6.6 6.6 7.1 7.0 7.3 7.5 7.7 7.9 8.1 8.1 5.5 4.1 4.5 4.4 4.5 4.4 3.9 4.6 4.0 4.4 4.4 5.2 5.5 5.8 6.3 6.1 6.2 6.0 6.0
6.9 6.5 6.5 6.5 6.5 6.5 6.5 6.5 6.5 6.5 6.5 6.5 6.5 6.5 6.5 6.5 6.5 6.8 7.1 7.5 7.6 7.7 7.8 8.0 7.9 5.1 3.8 4.4 3.8 3.6 3.9 5.0 4.5 4.6 4.7 4.6 4.5 4.6 5.3 5.7 6.0 5.8 5.8 6.3
6.5 6.5 6.5 6.5 6.5 6.5 6.5 6.5 6.5 6.5 6.5 6.5 6.5 6.5 6.5 6.5 6.5 6.9 7.3 7.5 7.6 7.6 7.8 7.9 8.1 7.9 6.4 4.2 3.5 3.8 4.6 3.9 4.2 4.1 4.5 4.8 4.7 4.5 4.7 5.1 5.6 5.8 5.9 6.2
6.5 6.5 6.5 6.5 6.5 6.5 6.5 6.5 6.5 6.5 6.5 6.5 6.5 6.5 6.5 7.0 7.3 7.1 7.2 7.3 7.3 7.4 7.0 5.4 5.7 7.1 7.4 5.3 4.4 4.0 4.3 4.6 4.2 4.0 4.0 4.2 4.2 4.1 4.2 4.6 4.8 5.2 5.5 5.7
6.5 6.5 6.5 6.5 6.5 6.5 6.5 6.5 6.5 6.5 6.5 6.5 6.5 6.5 6.5 6.5 6.7 6.9 7.0 7.2 7.0 6.5 5.5 4.4 3.8 1.5 1.6 3.3 3.9 4.0 3.7 5.0 4.5 4.8 3.4 4.2 3.2 4.0 4.7 4.6 4.9 4.9 4.8 5.2
6.5 6.5 6.5 6.5 6.5 6.5 6.5 6.5 6.5 6.5 6.5 6.5 6.5 6.5 6.6 6.8 6.9 6.6 6.6 6.5 6.0 5.7 5.1 4.5 3.9 4.2 2.6 1.9 2.4 3.7 5.4 5.1 5.5 5.7 5.6 4.6 3.2 4.5 3.7 4.3 4.0 4.5 4.5 4.5
6.7 6.5 6.5 6.5 6.5 6.5 6.5 6.5 6.5 6.5 6.5 6.5 6.5 6.5 6.8 7.0 7.0 6.8 6.6 6.0 5.8 5.6 5.7 5.3 4.4 3.8 3.6 3.1 1.8 1.6 3.3 4.7 6.4 6.7 5.8 5.6 5.3 4.0 4.8 4.5 4.5 4.6 4.3 4.0
6.5 6.5 6.5 6.5 6.5 6.5 6.5 6.5 7.1 6.7 6.5 6.7 6.8 6.6 6.7 6.9 6.5 6.5 6.7 6.7 6.0 5.5 5.1 5.0 5.2 5.1 4.2 4.0 3.9 2.7 -0.6 4.3 2.8 3.5 3.3 2.0 2.1 2.5 3.5 3.9 3.5 4.3 4.5 4.7
6.5 6.5 6.5 6.5 6.5 6.5 6.5 6.8 7.2 6.5 6.5 6.9 7.0 7.0 6.9 6.5 6.6 6.4 6.9 6.5 6.2 6.1 6.2 5.8 5.1 4.7 4.5 4.9 5.8 4.7 4.0 3.5 2.6 -1.9 3.3 2.0 1.2 1.5 2.1 3.0 3.8 4.9 5.0 5.6
6.5 6.5 6.5 6.5 6.5 6.5 7.1 6.8 6.5 6.6 7.2 7.2 7.1 7.0 6.6 6.4 6.5 6.6 6.8 6.5 6.5 6.6 7.0 7.0 6.4 6.0 5.9 5.7 5.7 6.0 4.8 4.2 2.9 2.0 3.8 2.7 0.3 1.5 3.2 1.9 3.1 4.2 5.0 5.0
6.5 6.5 6.5 6.5 6.5 6.8 7.3 7.0 7.2 6.7 7.2 7.1 7.2 7.2 7.2 7.0 6.7 6.7 6.7 6.8 6.3 6.4 6.4 6.2 5.8 6.1 5.7 5.5 5.7 5.7 4.1 4.4 4.7 4.8 4.2 1.2 2.0 3.0 3.8 3.6 3.9 4.3 4.0 3.9
6.5 6.9 6.5 6.5 6.5 6.7 7.1 7.3 7.4 5.7 5.4 6.9 7.5 7.4 7.7 6.8 6.7 6.9 6.5 6.5 6.3 6.3 6.0 6.3 6.2 5.5 4.3 4.3 4.4 4.4 4.9 4.8 5.1 4.7 4.2 4.1 4.1 3.6 4.3 4.6 4.6 4.3 3.3 2.7
6.6 6.7 6.5 6.5 6.7 7.0 7.3 7.4 7.5 7.0 5.7 5.0 5.7 6.3 6.3 7.3 7.0 6.3 5.7 5.2 5.4 5.3 5.3 4.7 4.9 4.6 3.9 4.3 3.7 3.9 3.9 4.3 6.1 6.0 5.5 5.1 6.0 5.0 4.1 4.5 4.2 3.7 3.0 -0.5
6.9 6.5 6.5 6.5 6.9 7.0 7.1 7.1 7.3 6.9 5.2 5.4 6.0 6.6 6.1 5.6 5.9 7.1 7.3 6.8 6.1 5.3 4.4 4.2 3.2 2.6 1.6 3.2 2.9 2.7 3.2 3.9 5.6 6.5 5.3 4.5 5.3 5.6 3.2 2.6 4.3 2.2 1.0 -3.0
Wind_Speed
8 8 12 17 14 6 6 6 2 1 3 8 11 10 11 13 15 16 16 16 18 17 17 15 14 15 13 13 12 11 10 9 7 6 5 4 4 3 2 2 1 3 6 9
7 15 16 13 10 9 7 5 3 2 4 6 4 11 10 15 18 17 17 18 17 18 17 16 15 15 15 15 14 13 12 11 9 7 4 2 3 3 2 1 1 4 6 8
16 14 11 12 11 10 8 9 5 1 5 5 4 6 9 11 15 15 17 17 18 19 19 18 17 17 16 15 15 14 14 13 10 9 5 3 4 4 3 3 2 2 3 5
12 9 16 14 16 12 14 9 5 6 4 3 3 3 6 13 16 19 20 19 20 20 20 18 19 18 17 17 15 15 14 13 11 11 8 7 5 7 6 5 4 4 5 6
12 14 14 18 20 14 11 9 7 5 3 3 4 4 1 9 16 21 24 22 22 23 21 21 20 20 18 17 16 16 15 14 12 12 10 8 6 5 5 5 7 6 4 7
9 2 13 14 9 15 9 7 6 4 2 9 4 7 5 7 15 20 22 23 23 22 22 21 20 20 19 18 16 15 16 15 14 13 13 11 10 8 6 7 6 5 4 5
9 8 3 4 15 4 10 12 8 7 6 10 2 5 12 7 9 15 24 26 25 23 21 21 20 19 18 19 19 16 17 16 16 16 14 13 11 10 10 10 8 7 7 7
14 13 12 7 10 13 16 16 9 12 10 11 2 7 3 3 7 8 15 22 23 24 23 22 23 21 20 21 20 19 18 15 16 16 14 12 12 8 8 10 7 8 8 7
10 17 2 8 6 12 9 11 11 6 1 6 4 5 11 8 4 8 12 14 21 23 24 24 22 21 20 20 19 21 19 17 16 17 14 12 11 10 8 10 9 7 7 7
6 7 7 8 6 5 10 12 10 7 15 15 9 6 8 7 4 3 8 16 19 23 24 22 19 19 18 20 19 18 21 19 18 18 14 12 13 12 9 8 10 10 9 9
6 4 3 6 15 18 8 9 7 10 8 14 11 9 5 9 7 10 9 12 17 20 22 21 20 20 19 17 19 18 19 19 18 16 14 13 13 12 10 9 9 10 9 8
1 7 9 11 2 6 18 19 18 11 12 8 11 16 3 5 6 5 4 5 11 14 19 20 18 17 18 17 18 18 18 17 17 15 14 15 14 13 13 11 10 9 9 9
2 4 9 8 5 4 12 13 17 8 9 19 15 11 3 2 4 5 1 1 7 13 16 17 17 19 18 17 17 17 17 17 16 15 16 15 15 14 15 13 11 10 9 8
5 2 9 13 15 9 6 16 15 18 12 13 14 18 10 6 5 5 4 6 4 7 13 15 16 16 16 16 16 16 17 16 15 16 16 15 15 15 15 12 12 11 11 10
4 3 4 6 5 7 9 12 15 19 21 19 18 19 15 10 1 5 4 6 7 7 6 3 8 10 12 12 12 14 13 13 14 15 15 15 14 12 11 11 13 12 12 12
8 1 2 4 4 11 7 5 11 13 7 12 8 17 3 5 8 7 5 7 7 6 7 6 5 1 10 11 11 12 12 14 13 12 14 13 11 11 12 12 12 12 13 13
6 5 4 4 7 10 7 4 5 7 5 5 11 2 2 8 8 7 8 8 8 8 8 8 8 7 6 3 5 9 9 11 13 13 9 10 11 12 12 12 13 14 13 13
6 6 2 1 7 9 6 4 4 7 5 2 3 6 10 12 10 11 9 9 9 8 9 8 7 7 7 7 5 2 8 10 12 12 12 10 9 10 9 9 11 12 11 13
14 4 3 3 5 6 5 3 2 2 2 5 4 6 12 12 13 10 10 10 9 9 9 8 8 8 9 9 8 6 9 3 9 8 9 10 10 8 10 11 12 12 10 12
10 6 4 3 5 8 7 4 6 3 3 4 1 3 4 2 3 3 6 7 9 10 8 9 9 9 11 9 6 7 12 3 3 3 1 2 2 4 6 9 9 9 12 13
6 4 9 5 3 1 3 6 1 6 4 4 3 3 4 3 5 9 8 7 8 8 8 9 9 9 10 9 8 10 6 4 5 10 6 2 4 4 5 7 8 9 11 13
4 7 4 3 4 5 10 2 5 3 7 9 8 8 11 11 9 7 7 7 7 7 7 9 8 9 9 9 9 8 11 11 10 6 4 3 7 5 5 5 5 7 10 12
3 3 4 2 2 4 8 9 6 5 10 7 9 9 9 9 8 6 6 8 7 7 6 7 6 8 9 9 10 9 9 11 9 7 7 10 6 4 5 5 5 5 6 8
1 2 3 4 5 7 6 8 9 10 13 11 12 12 9 8 6 5 5 5 8 6 6 6 8 9 9 8 9 10 10 9 8 8 9 8 7 7 5 4 4 4 3 4
2 5 4 5 8 5 6 7 8 9 9 11 12 12 10 8 5 3 2 3 3 3 4 5 6 6 7 6 8 9 9 9 6 5 6 7 6 7 7 7 6 5 4 2
3 2 1 2 7 3 4 5 8 5 8 8 9 9 10 9 7 6 4 2 2 2 3 2 2 3 3 6 8 8 6 7 9 6 5 5 6 7 6 7 8 1 4 3
Wind_Direction
185 194 193 193 206 225 160 152 206 167 182 205 224 242 232 195 203 196 197 197 199 200 208 203 203 202 198 194 186 194 188 177 170 169 172 149 174 170 195 230 243 168 172 171
168 210 204 194 176 201 192 180 190 127 174 222 236 252 229 204 206 206 195 201 206 203 203 206 199 199 198 196 194 191 193 183 182 182 172 156 160 171 177 189 236 142 159 172
196 199 176 174 183 190 209 212 175 329 168 233 279 254 188 209 210 206 216 208 211 209 203 204 199 200 196 199 199 196 192 187 193 180 154 121 126 129 154 184 224 225 220 194
212 188 180 193 197 196 220 185 175 149 200 323 221 304 216 195 201 210 214 211 208 212 209 202 198 204 201 199 199 197 197 189 192 187 179 179 190 174 183 185 187 206 228 217
193 190 183 201 202 193 221 171 197 157 186 275 196 260 189 191 207 210 212 212 213 207 204 206 203 199 206 202 195 195 194 194 192 193 193 190 191 199 175 172 177 190 195 195
200 182 207 199 187 191 161 122 87 88 187 259 242 237 250 194 219 213 209 210 215 211 211 208 202 203 205 200 199 194 189 193 195 200 195 195 186 192 193 185 185 192 195 193
183 188 177 162 194 178 190 190 218 227 219 239 69 229 259 240 229 214 202 205 206 210 211 208 202 200 202 199 198 193 195 191 196 199 198 196 191 188 201 190 189 183 197 196
200 208 191 162 215 197 205 206 215 216 221 240 128 242 237 275 255 221 213 210 206 205 206 206 203 201 196 196 197 193 193 193 196 196 201 195 198 192 200 200 197 199 202 206
197 222 208 207 179 184 186 209 216 228 305 238 220 254 270 272 257 233 225 203 202 198 198 202 201 199 196 196 193 192 196 196 199 199 192 201 198 199 197 195 201 206 210 208
186 205 208 185 183 190 219 176 190 207 213 223 220 254 241 255 337 276 234 216 203 200 195 194 192 194 196 198 195 195 197 194 197 201 197 198 204 206 199 198 206 207 204 205
157 231 153 167 202 200 178 195 213 224 233 221 230 240 208 257 311 296 270 223 204 195 197 197 195 190 192 188 193 197 199 197 199 203 195 195 200 207 200 197 214 217 212 210
168 210 215 200 107 283 215 210 205 210 193 229 240 241 92 303 301 303 298 210 195 201 197 192 191 189 190 193 195 194 194 199 199 196 192 196 202 203 212 207 206 212 219 215
29 214 198 216 190 160 213 201 203 204 215 217 222 228 9 2 18 40 15 116 179 188 196 189 184 184 189 193 194 194 195 197 199 193 199 200 205 206 213 216 209 213 217 223
221 209 235 216 228 192 188 203 214 220 222 213 223 241 230 275 2 35 40 43 68 183 191 193 189 189 193 193 192 195 196 196 194 197 200 201 204 209 212 213 216 215 216 218
23 255 215 256 224 188 207 199 193 212 226 229 233 240 250 285 200 84 64 69 76 83 103 153 201 203 207 195 187 197 202 193 191 191 195 203 208 210 213 208 218 227 225 226
354 337 301 233 196 197 172 191 204 218 208 221 237 249 6 84 102 85 86 82 73 62 49 50 57 89 211 206 203 197 198 196 189 186 194 193 195 198 204 212 217 224 230 230
324 332 343 181 175 153 167 156 200 162 150 213 213 268 112 97 76 79 81 81 81 64 47 38 38 42 52 60 224 194 190 194 196 194 191 199 190 203 210 213 218 223 228 232
288 319 305 278 177 196 66 93 112 110 77 44 102 75 84 95 80 60 52 73 64 56 48 42 40 42 33 37 66 149 188 196 203 205 206 201 185 205 202 207 207 221 227 232
218 257 254 252 198 110 144 76 92 28 80 0 118 128 120 125 97 58 51 60 65 54 47 41 38 38 32 36 26 71 53 227 210 209 213 222 225 222 219 220 224 229 226 231
191 230 256 198 204 200 106 84 29 340 189 359 333 93 134 173 152 94 57 59 65 57 43 37 31 39 43 21 47 48 75 291 96 141 271 243 272 240 232 239 238 239 235 240
150 181 216 222 225 133 43 327 154 205 96 70 50 89 121 87 85 126 115 88 73 69 63 66 50 44 36 18 39 60 76 40 335 47 321 345 17 325 288 273 263 263 255 253
197 167 166 160 209 191 358 206 228 40 105 97 83 93 100 105 106 108 111 104 88 75 75 68 68 60 46 33 37 33 28 11 18 31 299 336 35 352 318 306 286 273 259 255
220 2 132 336 62 48 37 62 21 52 78 48 96 86 93 98 98 101 106 94 82 77 68 68 72 69 50 41 36 29 9 4 1 14 1 25 20 353 317 326 320 299 294 243
82 17 97 170 90 65 51 55 37 49 69 63 64 75 69 84 76 81 91 103 105 94 73 61 62 55 49 41 45 31 8 358 2 15 18 14 355 344 334 315 297 299 335 355
333 315 120 90 112 131 59 44 28 49 53 66 63 59 53 50 47 33 52 83 76 89 121 109 92 87 72 30 36 47 19 351 355 17 33 27 4 1 355 344 333 329 5 352
0 29 256 112 109 55 81 43 16 37 42 53 66 62 49 45 26 1 328 305 247 191 165 138 113 129 74 58 41 4 22 23 341 336 20 31 15 10 359 344 337 139 317 122